Regional Weather Roundup
Issued by NWS

Home | Current Version | Previous Version | Graphics & Text | Print | Product List | Glossary On
Versions: 1 2 3 4 5 6 7 8 9 10 11 12 13 14 15 16 17 18 19 20 21 22 23 24 25 26 27 28 29 30 31 32 33 34 35 36 37 38 39 40 41 42 43 44 45 46 47 48 49 50
000
ASUS43 KLSX 191707
RWRMO

WEATHER SUMMARY FOR MISSOURI
NATIONAL WEATHER SERVICE SPRINGFIELD MO
1200 PM CDT FRI SEP 19 2014

NOTE: "FAIR" INDICATES FEW OR NO CLOUDS BELOW 12,000 FEET WITH NO
       SIGNIFICANT WEATHER AND/OR OBSTRUCTIONS TO VISIBILITY.
       CURRENT SKY AND/OR WEATHER CONDITIONS ARE NOT AVAILABLE FOR
       CHILLICOTHE AND FARMINGTON.

MOZ001>031-035>038-043-044-053-054-191800-
...NORTHERN AND WESTERN MISSOURI...

CITY           SKY/WX    TMP DP  RH WIND       PRES   REMARKS
KANSAS CTY INT CLOUDY    66  64  93 S8        30.02F FOG
KANSAS C DTWN  CLOUDY    69  64  84 S7        30.02F HAZE
LEE`S SUMMIT   CLOUDY    67  63  87 S5        30.04F
ST JOSEPH      CLOUDY    68  64  87 S13       30.00F
CHILLICOTHE      N/A     71  62  73 S13       30.04F
KIRKSVILLE     SUNNY     72  58  61 S13       30.06F

$$
MOZ066>068-077>081-088>096-101>105-191800-
...SOUTHWEST MISSOURI...

CITY           SKY/WX    TMP DP  RH WIND       PRES   REMARKS
SPRINGFIELD    SUNNY     74  63  68 S6        30.06F
JOPLIN         PTSUNNY   75  67  76 S7        30.05S

$$
MOZ032>034-039>042-045>050-055>058-069>072-191800-
...CENTRAL MISSOURI...

CITY           SKY/WX    TMP DP  RH WIND       PRES   REMARKS
COLUMBIA       SUNNY     74  60  61 SE10      30.07
JEFFERSON CITY SUNNY     75  58  55 S8        30.06F
ROLLA          SUNNY     72  59  63 SE10      30.07F
SEDALIA        PTSUNNY   74  62  66 S12       30.05F
WHITEMAN AFB   CLOUDY    70  63  77 S12       30.04F
OSAGE BEACH    MOSUNNY   73  61  64 S10       30.07F

$$
MOZ051-052-059>065-191800-
...EAST CENTRAL MISSOURI...

CITY           SKY/WX    TMP DP  RH WIND       PRES   REMARKS
ST LOUIS INTL  MOSUNNY   73  56  54 CALM      30.10F
SPIRIT OF STL  MOSUNNY   73  58  59 VRB5      30.09F
ST CHARLES     SUNNY     74  56  53 SE8       30.09F

$$
MOZ072>076-082>087-097>100-106>115-191800-
...SOUTH CENTRAL AND SOUTHEAST MISSOURI...

CITY           SKY/WX    TMP DP  RH WIND       PRES   REMARKS
CAPE GIRARDEAU SUNNY     76  61  59 E5        30.08F
FARMINGTON     MOSUNNY   73  59  60 S6        30.11F
POPLAR BLUFF   SUNNY     77  58  51 E6        30.07F
WEST PLAINS    SUNNY     72  59  63 SE6       30.09F

$$


USA.gov is the U.S. government's official web portal to all federal, state and local government web resources and services.